Venice, FL

10:43 PM EDT on April 29, 2017 (GMT -0400)
Venice Municipal

Weather History for KVNC - June, 2014

Change the Weather History Date:

Monday, June 9, 2014

  Actual Average Record
Temperature  
Mean Temperature 78 °F -  
Max Temperature 84 °F 89 °F 96 °F (1956)
Min Temperature 73 °F 71 °F 64 °F (1966)
Cooling Degree Days 14    
Growing Degree Days 28 (Base 50)    
Moisture  
Dew Point 73 °F    
Average Humidity 81    
Maximum Humidity 100    
Minimum Humidity 66    
Precipitation  
Precipitation 0.00 in - - ()
Sea Level Pressure  
Sea Level Pressure 29.97 in    
Wind  
Wind Speed 5 mph (WNW)    
Max Wind Speed 13 mph    
Max Gust Speed 16 mph    
Visibility 10 miles    
Events Thunderstorm    
Averages and records for this station are not official NWS values.
T = Trace of Precipitation, MM = Missing Value Source: NWS Daily Summary

Daily Weather History Graph

Daily Weather History Graph

Search for Another Location

Airport or City:

Trip Planner

Search our weather history database for the weather conditions in past years. The results will help you decide how hot, cold, wet, or windy it might be!

Date:

Astronomy

Jun. 09, 2014 Rise Set
Actual Time 6:34 AM EDT 8:23 PM EDT
Civil Twilight 6:08 AM EDT 8:49 PM EDT
Nautical Twilight 5:36 AM EDT 9:21 PM EDT
Astronomical Twilight 5:03 AM EDT 9:54 PM EDT
Moon 4:59 PM EDT (6/9) 3:42 AM EDT (6/9)
Length of Visible Light 14h 41m
Length of Day
13h 48m
Waxing Gibbous, 85% of the Moon is Illuminated
Jun 9
Waxing Gibbous
Jun 13
Full
Jun 19
Last Quarter
Jun 27
New
Jul 5
First Quarter

Hourly Weather History & Observations

Time (EDT) Temp. Heat Index Dew Point Humidity Pressure Visibility Wind Dir Wind Speed Gust Speed Precip Events Conditions
12:15 AM 73.4 °F - 71.6 °F 94% 30.01 in 10.0 mi East 8.1 mph - N/A   Clear
12:35 AM 73.4 °F - 71.6 °F 94% 30.01 in 10.0 mi SSE 4.6 mph - N/A   Scattered Clouds
12:55 AM 73.4 °F - 71.6 °F 94% 30.01 in 10.0 mi Calm Calm - N/A   Partly Cloudy
1:15 AM 73.4 °F - 71.6 °F 94% 29.99 in 10.0 mi Calm Calm - N/A   Clear
1:35 AM 73.4 °F - 71.6 °F 94% 29.99 in 10.0 mi Calm Calm - N/A   Clear
1:55 AM 75.2 °F - 71.6 °F 89% 29.97 in 10.0 mi Calm Calm - N/A   Clear
2:15 AM 75.2 °F - 71.6 °F 89% 29.96 in 10.0 mi WSW 5.8 mph - N/A   Clear
2:35 AM 77.0 °F - 69.8 °F 78% 29.95 in 10.0 mi SW 5.8 mph - N/A   Clear
2:55 AM 77.0 °F - 68.0 °F 74% 29.94 in 10.0 mi WSW 4.6 mph - N/A   Clear
3:15 AM 78.8 °F - 71.6 °F 78% 29.94 in 10.0 mi West 5.8 mph - N/A   Clear
3:35 AM 77.0 °F - 73.4 °F 89% 29.93 in 10.0 mi West 5.8 mph - N/A   Clear
3:55 AM 77.0 °F - 73.4 °F 89% 29.92 in 10.0 mi West 4.6 mph - N/A   Clear
4:15 AM 77.0 °F - 73.4 °F 89% 29.92 in 10.0 mi SW 4.6 mph - N/A   Clear
4:35 AM 75.2 °F - 71.6 °F 89% 29.92 in 10.0 mi NNE 4.6 mph - N/A   Clear
4:55 AM 73.4 °F - 71.6 °F 94% 29.92 in 10.0 mi Calm Calm - N/A   Partly Cloudy
5:15 AM 73.4 °F - 71.6 °F 94% 29.92 in 10.0 mi Calm Calm - N/A   Unknown
5:35 AM 73.4 °F - 71.6 °F 94% 29.91 in 10.0 mi Calm Calm - N/A   Unknown
5:55 AM 73.4 °F - 71.6 °F 94% 29.91 in 10.0 mi Calm Calm - N/A   Clear
6:15 AM 73.4 °F - 73.4 °F 100% 29.93 in 10.0 mi NE 6.9 mph - N/A   Clear
6:35 AM 73.4 °F - 71.6 °F 94% 29.94 in 10.0 mi East 4.6 mph - N/A   Unknown
6:55 AM 73.4 °F - 71.6 °F 94% 29.95 in 10.0 mi Calm Calm - N/A   Unknown
7:15 AM 73.4 °F - 71.6 °F 94% 29.96 in 10.0 mi Calm Calm - N/A   Unknown
7:35 AM 73.4 °F - 73.4 °F 100% 29.96 in 10.0 mi Calm Calm - N/A   Clear
7:55 AM 75.2 °F - 73.4 °F 94% 29.97 in 10.0 mi ESE 3.5 mph - N/A   Clear
8:15 AM 77.0 °F - 73.4 °F 89% 29.98 in 10.0 mi Calm Calm - N/A   Unknown
8:35 AM 80.6 °F 86.2 °F 75.2 °F 84% 29.99 in 10.0 mi Calm Calm - N/A   Clear
8:55 AM 82.4 °F 89.5 °F 75.2 °F 79% 29.99 in 10.0 mi WSW 4.6 mph - N/A   Scattered Clouds
9:15 AM 82.4 °F 89.5 °F 75.2 °F 79% 30.00 in 10.0 mi West 8.1 mph - N/A   Partly Cloudy
9:35 AM 82.4 °F 89.5 °F 75.2 °F 79% 30.00 in 10.0 mi West 6.9 mph - N/A   Scattered Clouds
9:55 AM 82.4 °F 89.5 °F 75.2 °F 79% 30.00 in 10.0 mi West 6.9 mph - N/A   Partly Cloudy
10:15 AM 82.4 °F 88.2 °F 73.4 °F 74% 30.00 in 10.0 mi West 8.1 mph - N/A   Scattered Clouds
10:35 AM 84.2 °F 92.3 °F 75.2 °F 74% 30.01 in 10.0 mi WSW 6.9 mph - N/A   Partly Cloudy
10:55 AM 84.2 °F 90.9 °F 73.4 °F 70% 30.01 in 10.0 mi West 9.2 mph - N/A   Clear
11:15 AM 84.2 °F 90.9 °F 73.4 °F 70% 30.02 in 10.0 mi West 8.1 mph - N/A   Clear
11:35 AM 84.2 °F 90.9 °F 73.4 °F 70% 30.02 in 10.0 mi West 8.1 mph - N/A   Partly Cloudy
11:55 AM 84.2 °F 90.9 °F 73.4 °F 70% 30.02 in 10.0 mi West 9.2 mph - N/A   Clear
12:55 PM 84.2 °F 90.9 °F 73.4 °F 70% 30.02 in 10.0 mi West 9.2 mph - N/A   Clear
1:15 PM 84.2 °F 90.9 °F 73.4 °F 70% 30.02 in 10.0 mi West 9.2 mph - N/A   Clear
1:35 PM 84.2 °F 90.9 °F 73.4 °F 70% 30.01 in 10.0 mi West 11.5 mph - N/A   Clear
1:55 PM 84.2 °F 90.9 °F 73.4 °F 70% 30.00 in 10.0 mi West 12.7 mph - N/A   Clear
2:15 PM 84.2 °F 90.9 °F 73.4 °F 70% 30.00 in 10.0 mi West 9.2 mph 16.1 mph N/A   Clear
2:35 PM 84.2 °F 89.6 °F 71.6 °F 66% 29.98 in 10.0 mi West 11.5 mph - N/A Thunderstorm Clear
3:35 PM 84.2 °F 90.9 °F 73.4 °F 70% 29.97 in 10.0 mi WNW 10.4 mph - N/A   Clear
3:55 PM 84.2 °F 90.9 °F 73.4 °F 70% 29.96 in 9.0 mi West 10.4 mph - N/A   Clear
4:15 PM 84.2 °F 90.9 °F 73.4 °F 70% 29.96 in 10.0 mi West 9.2 mph - N/A   Clear
4:35 PM 84.2 °F 90.9 °F 73.4 °F 70% 29.96 in 10.0 mi WNW 9.2 mph - N/A   Clear
5:15 PM 84.2 °F 90.9 °F 73.4 °F 70% 29.96 in 10.0 mi WNW 10.4 mph - N/A Thunderstorm Clear
5:35 PM 84.2 °F 90.9 °F 73.4 °F 70% 29.95 in 10.0 mi WNW 11.5 mph - N/A   Clear
5:55 PM 82.4 °F 88.2 °F 73.4 °F 74% 29.95 in 10.0 mi WNW 10.4 mph - N/A   Clear
6:15 PM 82.4 °F 88.2 °F 73.4 °F 74% 29.95 in 10.0 mi WNW 9.2 mph - N/A   Clear
6:35 PM 82.4 °F 88.2 °F 73.4 °F 74% 29.96 in 10.0 mi NW 8.1 mph - N/A   Clear
6:55 PM 82.4 °F 88.2 °F 73.4 °F 74% 29.96 in 10.0 mi NW 8.1 mph - N/A   Clear
7:15 PM 82.4 °F 88.2 °F 73.4 °F 74% 29.96 in 10.0 mi NW 9.2 mph - N/A   Clear
7:35 PM 82.4 °F 88.2 °F 73.4 °F 74% 29.96 in 10.0 mi WNW 6.9 mph - N/A   Clear
7:55 PM 82.4 °F 88.2 °F 73.4 °F 74% 29.96 in 10.0 mi WNW 5.8 mph - N/A   Clear
8:15 PM 80.6 °F 85.4 °F 73.4 °F 79% 29.98 in 10.0 mi NW 4.6 mph - N/A   Clear
8:35 PM 80.6 °F 85.4 °F 73.4 °F 79% 29.98 in 10.0 mi NW 5.8 mph - N/A   Clear
8:55 PM 80.6 °F 85.4 °F 73.4 °F 79% 29.98 in 10.0 mi West 4.6 mph - N/A   Clear
9:15 PM 80.6 °F 85.4 °F 73.4 °F 79% 29.99 in 10.0 mi NW 4.6 mph - N/A   Clear
9:35 PM 80.6 °F 85.4 °F 73.4 °F 79% 29.99 in 10.0 mi WNW 4.6 mph - N/A   Clear
9:55 PM 80.6 °F 85.4 °F 73.4 °F 79% 29.99 in 10.0 mi WNW 4.6 mph - N/A   Clear
10:35 PM 80.6 °F 85.4 °F 73.4 °F 79% 30.00 in 10.0 mi Calm Calm - N/A   Clear
10:55 PM 80.6 °F 85.4 °F 73.4 °F 79% 29.99 in 10.0 mi Calm Calm - N/A   Clear
11:15 PM 80.6 °F 86.2 °F 75.2 °F 84% 30.00 in 10.0 mi Calm Calm - N/A   Clear
11:35 PM 80.6 °F 86.2 °F 75.2 °F 84% 29.99 in 10.0 mi Calm Calm - N/A   Clear
11:55 PM 78.8 °F - 75.2 °F 89% 30.00 in 10.0 mi Calm Calm - N/A   Clear